Location: Newark
(25.0000°N, 73.5000°E)
Time: 01:29:28
(UTC+00:00)

RS-15 - Pass Details

Date: 21 February 2020
Orbit: 1898 x 2146 km, 64.8° (Epoch: 08 April)

Event Time Altitude Azimuth Distance (km) Brightness Sun altitude
Rises 13:53:40 0° 187° (S) 5,427 10.5 -12.1°
Reaches altitude 10° 13:57:09 10° 183° (S) 4,398 10.0 -12.9°
Maximum altitude 14:07:54 54° 109° (ESE) 2,261 8.0 -15.3°
Drops below altitude 10° 14:18:20 10° 37° (NE) 4,287 9.5 -17.7°
Sets 14:21:40 0° 33° (NNE) 5,283 10.0 -18.4°
